Terminal Aerodrome Forecast
Issued by NWS Houston/Galveston, TX

Home | Current Version | Previous Version | Text Only | Print | Product List | Glossary On
Versions: 1 2 3 4 5 6 7 8 9 10 11 12 13 14 15 16 17 18 19 20 21 22 23 24 25 26 27 28 29 30 31 32
000
FTUS44 KHGX 261259 AAA
TAFCLL
TAF AMD
KCLL 261259Z 2613/2712 17006KT P6SM BKN007
     FM261500 20006KT P6SM FEW030 SCT250
     FM262200 18009KT P6SM FEW050
     FM270300 20004KT P6SM SKC=

USA.gov is the U.S. government's official web portal to all federal, state and local government web resources and services.